Home   Weather   Oklahoma City   Past weeks
Flag for USA

Past Weather in Oklahoma City, Oklahoma, USA — Yesterday and Last 2 Weeks

Now
30 °F

Sunny.


Feels Like: 22 °F
Forecast: 27 / 62 °F
Wind: 8 mph from South

Location: Will Rogers World Airport

Current Time: Nov 15, 2018 at 8:58:35 am

Latest Report: Nov 15, 2018 at 7:52 am


Visibility: 10 mi

Pressure: 30.18 "Hg

Humidity: 79%

Dew Point: 24 °F

Location of Oklahoma CityLocation

Past Weather in Oklahoma City — Graph

°F

Oklahoma City Temperature Yesterday

Maximum temperature yesterday: 45 °F (at 2:52 pm)
Minimum temperature yesterday: 18 °F (at 12:52 am)
Average temperature yesterday: 30 °F

High & Low Weather Summary for the Past Weeks

 TemperatureHumidityPressure
High70 °F (Nov 6, 12:52 pm)97% (Nov 8, 8:52 pm)30.64 "Hg (Nov 8, 8:52 pm)
Low18 °F (Nov 14, 12:52 am)32% (Nov 6, 2:52 pm)29.65 "Hg (Nov 5, 5:52 am)
Average44 °F68%30.13 "Hg
* Reported Oct 31 7:52 am — Nov 15 6:52 am, Oklahoma City. Weather by CustomWeather, © 2018

Note: Actual official high and low records may vary slightly from our data, if they occured in-between our weather recording intervals... More about our weather records

Advertising

Oklahoma City Weather History for the Previous 24 Hours

Scroll right to see more
 ConditionsComfort  
Time TempWeatherWind HumidityBarometerVisibility
6:52 am
Thu, Nov 15
25 °FClear.8 mph81%30.18 "Hg10 mi
5:52 am24 °FClear.6 mph81%30.20 "Hg10 mi
4:52 am24 °FClear.7 mph81%30.21 "Hg10 mi
3:52 am24 °FClear.8 mph77%30.23 "Hg10 mi
2:52 am25 °FClear.6 mph78%30.24 "Hg10 mi
1:52 am24 °FClear.6 mph81%30.26 "Hg10 mi
12:52 am26 °FClear.6 mph74%30.28 "Hg10 mi
11:52 pm
Wed, Nov 14
26 °FClear.6 mph77%30.29 "Hg10 mi
10:52 pm28 °FClear.6 mph72%30.31 "Hg10 mi
9:52 pm29 °FClear.No wind72%30.33 "Hg10 mi
8:52 pm30 °FClear.8 mph64%30.34 "Hg10 mi
7:52 pm32 °FClear.6 mph61%30.35 "Hg10 mi
6:52 pm38 °FClear.No wind45%30.35 "Hg10 mi
5:52 pm41 °FClear.No wind38%30.35 "Hg10 mi
4:52 pm42 °FPassing clouds.No wind36%30.36 "Hg10 mi
3:52 pm44 °FPassing clouds.No wind35%30.37 "Hg10 mi
2:52 pm45 °FPassing clouds.9 mph33%30.38 "Hg10 mi
1:52 pm43 °FSunny.7 mph38%30.41 "Hg10 mi
12:52 pm41 °FSunny.No wind43%30.45 "Hg10 mi
11:52 am40 °FSunny.3 mph45%30.49 "Hg10 mi
10:52 am34 °FSunny.No wind56%30.51 "Hg10 mi
9:52 am31 °FSunny.No wind73%30.53 "Hg10 mi
8:52 am28 °FPassing clouds.No wind81%30.53 "Hg10 mi
Weather by CustomWeather, © 2018

See weather overview